Starlink 4133

operational
NORAD ID: 53253 Int'l Des: 2022-086 Owner: SPXS Country: US Constellation: starlink
LEOCIRCULAR

About Starlink 4133

Description loading...

Live Position

Loading 3D Globe...

Upcoming Passes

Altitude History

Altitude vs Time

uPlot chart will show altitude changes over time

Two-Line Element Set

1 53253U 22086M 25348.91130110 .00002260 00000-0 16009-3 0 9993
2 53253 53.2163 214.7059 0001491 87.1796 272.9367 15.08826376188268
Epoch: Dec 14, 2025 • Age: 10 hours

Current Status

Altitude 545.1 km
Velocity 7.60 km/s
Sub-Earth Point 52.18°N, 85.53°E
Launch Date Jul 24, 2022
Age 3.3 years
Type internet

Technical Details

Classification Payload
Mass 297.00 kg
Dry Mass 275.00 kg
Total Mass 297.00 kg
Length 0.20 m
Diameter 2.80 m
Span 9.00 m
Shape Box + pan
Manufacturer SPXS
Bus Type Starlink
Phase Status In Orbit
Owner/State SPXS/US

Large Constellations

Loading constellations...